Location: Solon
(41.3849°N, 81.4081°W)
Time: 22:07:28
(UTC-05:00)

Daily predictions for brighter satellites

Satellite Brightness Start Highest point End
(mag) Time Altitude Azimuth Time Altitude Azimuth Time Altitude Azimuth
NOSS 3-2 (A) 4.3 17:14:21 10° NNW 17:21:24 44° NE 17:29:05 10° ESE
IDEFIX/ARIANE 42P 3.7 17:21:39 10° S 17:26:39 49° W 17:31:40 10° NNW
Cosmos 2297 Rocket 2.4 17:23:07 10° NNW 17:28:35 47° ENE 17:34:01 10° SE
Cosmos 1656 4.2 17:23:54 10° S 17:29:01 39° ESE 17:34:05 10° NE
NOSS 3-2 (C) 4.5 17:22:45 10° NNW 17:29:38 39° NE 17:37:07 10° ESE
Cosmos 2026 Rocket 4.4 17:25:14 10° NNW 17:31:36 73° W 17:37:51 10° S
Cosmos 1666 2.6 17:29:35 10° N 17:33:19 63° E 17:37:01 10° SSE
ATLAS 3B R/B 2.6 17:27:19 10° NNW 17:34:02 73° NE 17:40:32 10° SE
Cosmos 2266 Rocket 4.4 17:28:23 10° N 17:34:06 40° ENE 17:39:52 10° SE
Meteor 1-12 Rocket 4.5 17:28:39 10° NNW 17:34:22 81° W 17:40:09 10° S
ATLAS 2AS CENTAUR R/B 3.4 17:28:10 10° SW 17:35:56 72° NW 17:44:06 10° NNE
USA 161 2.9 17:33:44 10° N 17:36:34 41° WNW 17:39:25 10° SSW
Cosmos 1484 Rocket 2.9 17:34:35 10° SSE 17:38:32 61° ENE 17:42:31 10° N
Cosmos 1655 Rocket 4.2 17:33:02 10° N 17:39:27 88° W 17:45:51 10° S
Cosmos 1455 Rocket 3.0 17:35:11 10° N 17:39:37 69° E 17:43:57 10° SSE
Atlas Centaur 2 4.2 17:35:18 10° WSW 17:39:53 22° SSW 17:43:46 10° SSE
Cosmos 158 Rocket 3.9 17:38:39 10° NNW 17:43:42 66° ENE 17:48:36 10° SSE
Cosmos 1544 Rocket 3.5 17:39:39 10° N 17:44:02 84° E 17:48:20 10° S
DELTA 2 R/B (1) 3.7 17:39:27 10° W 17:45:01 75° S 17:50:35 10° E
USA 116 4.0 17:44:27 10° NNE 17:47:17 31° E 17:50:05 10° SSE
NOSS 8 (A) 4.2 17:44:04 10° SSW 17:47:23 80° SE 17:50:34 11° NE
USA 215 3.2 17:41:53 10° SE 17:48:25 78° NE 17:54:57 10° NW
PSLV R/B 3.1 17:47:05 10° W 17:50:16 81° S 17:52:53 14° E
YAOGAN 1 3.0 17:46:31 10° SE 17:50:30 38° ENE 17:54:32 10° N
IRS-1A Rocket 4.4 17:45:54 10° SE 17:51:16 51° ENE 17:56:35 10° N
Abrixas rocket 3.7 17:49:36 10° WNW 17:52:18 23° N 17:54:22 14° NE
CSL-04 Debris 4.2 17:48:06 10° SSE 17:53:29 87° ENE 17:58:55 10° NNW
BREEZE-M DEB (TANK) 4.0 17:51:19 10° NW 17:53:54 36° NNE 17:59:20 10° E
Meteor 2-4 Rocket 3.6 17:51:05 10° S 17:56:29 70° E 18:01:48 10° NNE
NOSS 3-4 (A) 3.9 17:51:41 10° S 17:57:32 45° ESE 18:02:56 13° NE
NOSS 3-4 (C) 3.9 17:51:48 10° S 17:57:37 45° ESE 18:02:59 13° NE
ISS -1.6 17:59:41 10° WNW 18:02:33 28° SW 18:05:25 10° SSE
METEOR-M 4.2 17:57:51 10° SE 18:03:01 52° ENE 18:08:11 10° N
Cosmos 724 4.2 17:57:15 10° NNW 18:03:04 81° ENE 18:08:53 10° SE
FENGYUN 3A 4.2 17:59:27 10° SE 18:04:12 33° ENE 18:08:57 10° N
AQUARIUS 4.4 18:00:52 10° S 18:05:21 77° W 18:09:52 10° NNW
Cosmos 2369 3.7 17:59:51 10° SSW 18:05:31 90° WNW 18:11:16 10° NNE
Cosmos 2278 3.7 18:00:01 10° SSW 18:05:42 86° ESE 18:11:27 10° NNE
COSMO-SKYMED 1 3.0 18:03:06 10° NNE 18:07:13 40° E 18:11:17 10° SSE
RESURS DK-1 4.0 18:04:52 10° SE 18:07:28 16° ESE 18:07:48 16° E
SJ 16-02 1.3 18:04:05 10° SSW 18:08:29 86° WNW 18:12:54 10° NNE
CSL-04 Rocket 4.2 18:03:28 10° S 18:08:50 63° WSW 18:14:19 10° NNW
Meteor 1-28 Rocket 3.3 18:06:18 10° N 18:10:04 77° WNW 18:13:51 10° SSW
CENTAUR R/B 3.7 18:06:01 10° NNW 18:13:02 35° NE 18:19:24 14° E
Cosmos 1697 Rocket 2.6 18:15:22 10° SSW 18:20:58 71° ESE 18:25:53 14° NNE
Cosmos 1515 3.7 18:18:49 10° S 18:22:31 57° E 18:25:17 17° NNE
CZ-2C R/B 3.9 18:19:22 10° N 18:24:04 80° WNW 18:28:50 10° SSW
EO 1 Del DPAF 3.5 18:22:11 23° NE 18:24:15 46° E 18:27:56 10° S
CZ-4 R/B 2.0 18:22:33 10° S 18:26:21 55° W 18:30:15 10° NNW
SPOT 3 Rocket 3.6 18:24:08 10° SSE 18:29:10 55° ENE 18:34:13 10° N
Meteor 1-15 Rocket 4.2 18:23:27 10° N 18:29:25 78° E 18:35:18 10° SSE
Cosmos 1025 Rocket 2.9 18:26:49 10° S 18:31:02 61° E 18:34:10 18° NNE
Ariane Rocket 4.3 18:26:47 10° S 18:31:34 42° W 18:36:22 10° NNW
Cosmos 2082 4.5 18:29:46 10° NNW 18:35:15 54° WSW 18:40:41 10° S
MONITOR-E 3.9 18:33:22 10° SSE 18:36:25 79° ENE 18:39:28 10° N
ERS-2 2.0 18:33:32 10° SSE 18:37:11 71° ENE 18:40:51 10° N
Okean 1-7 Rocket 3.6 18:33:00 10° S 18:37:16 54° E 18:39:24 27° NNE
SKYMED 3 4.5 18:33:13 11° NNE 18:37:20 87° E 18:41:41 10° SSW
Cosmos 494 Rocket 4.0 18:33:10 10° N 18:38:21 55° ENE 18:43:29 10° SE
Landsat 4 3.9 18:35:27 13° N 18:38:47 72° WNW 18:42:34 10° SSW
Cosmos 2084 3.2 18:36:16 10° SSW 18:40:27 83° SE 18:41:44 42° NE
Gblst 52 Del rocket 4.2 18:34:48 10° NW 18:40:27 72° NNE 18:44:12 25° ESE
Cosmos 2251 Rocket 3.9 18:35:58 10° N 18:40:55 39° ENE 18:42:21 32° E
Cosmos 1745 Rocket 4.5 18:37:51 10° N 18:43:27 34° ENE 18:49:03 10° SE
Cosmos 2227 Rocket 3.9 18:40:59 10° NW 18:46:03 34° WSW 18:51:04 10° SSW
Okean 2 3.4 18:44:07 10° S 18:48:13 82° W 18:50:50 22° N
ALOS 2.2 18:49:41 10° SSE 18:54:21 83° WSW 18:59:03 10° NNW
FengYun 1-2 T 4.4 18:49:10 10° SE 18:54:32 49° ENE 18:59:58 10° N
DNEPR-1 R/B 4.1 18:50:04 10° NNW 18:55:13 69° NE 18:59:46 19° SE
SKYMED 2 4.1 18:51:24 12° N 18:55:19 59° WNW 18:59:34 10° SSW
Cosmos 1980 Rocket 2.1 18:56:45 10° SSW 19:02:26 89° SE 19:05:03 34° NNE
SL-8 R/B 4.3 19:00:58 10° SSW 19:05:15 40° SSE 19:05:15 40° SSE
Cosmos 1066 Rocket 4.0 19:00:25 10° S 19:05:54 70° E 19:07:39 43° NNE
Cosmos 2297 Rocket 4.5 19:07:49 10° NW 19:12:17 24° WSW 19:16:44 10° SSW
Cosmos 1892 Rocket 4.5 19:22:33 10° S 19:25:32 42° SSW 19:25:32 42° SSW
DELTA 2 R/B (1) 4.1 19:25:52 10° W 19:31:14 50° SSW 19:31:48 48° S
Cosmos 2344 3.8 19:24:34 10° S 19:31:20 48° SE 19:31:20 48° SE
Lacrosse 5 rocket 3.7 19:28:27 10° SSW 19:29:24 16° S 19:29:24 16° S
Cosmos 2227 4.2 19:27:36 10° NNW 19:33:22 83° WSW 19:34:03 70° S
S3M 4.0 19:36:23 10° SSW 19:42:30 74° W 19:44:08 50° NNW
SL-16 R/B 3.3 19:39:31 10° SSW 19:42:32 33° S 19:42:32 33° S
RESURS DK-1 4.1 19:41:15 10° SW 19:43:45 30° WSW 19:43:45 30° WSW
Cosmos 2263 Rocket 4.1 19:42:20 10° NNW 19:43:35 17° N 19:43:35 17° N
Cosmos 2322 Rocket 3.5 19:43:54 10° SSW 19:46:37 30° S 19:46:37 30° S
CENTAUR R/B 3.2 19:56:27 10° NW 20:04:25 71° WSW 20:06:43 51° S
